Regional Weather Roundup
Issued by NWS Huntsville, AL

Home | Current Version | Previous Version | Text Only | Print | Product List | Glossary On
Versions: 1 2 3 4 5 6 7 8 9 10 11 12 13 14 15 16 17 18 19 20 21 22 23 24 25 26 27 28 29 30 31 32 33 34 35 36 37 38 39 40 41 42 43 44 45 46 47 48 49 50
835
ASUS44 KHUN 290610
RWRHUN

WEATHER ROUNDUP FOR THE TENNESSEE VALLEY
NATIONAL WEATHER SERVICE HUNTSVILLE AL
100 AM CDT SUN MAY 29 2016

ALZ001>004-290700-
NORTHWEST ALABAMA

CITY           SKY/WX    TMP DP  RH WIND       PRES   REMARKS
COURTLAND HCN    N/A     66 N/A N/A CALM        N/A
RUSSELLVILLE     N/A     64 N/A N/A MISG        N/A
SHOALS AIRPORT PTCLDY    69  63  81 E3        30.10R
6HR MIN TEMP:  67; 6HR MAX TEMP:  80;

SHOALS TVA RES   N/A     68 N/A N/A MISG        N/A
$$

ALZ005>007-016-290700-
NORTH CENTRAL ALABAMA

CITY           SKY/WX    TMP DP  RH WIND       PRES   REMARKS
CULLMAN AG STN   N/A     64 N/A N/A CALM        N/A
DECATUR AP     CLEAR     66  65  96 E6        30.11S
6HR MIN TEMP:  65; 6HR MAX TEMP:  77; 6HR PCP: TRACE;

HUNTSVILLE AP  PTCLDY    69  64  84 E3        30.10F
6HR MIN TEMP:  68; 6HR MAX TEMP:  78;

HUN NWS/UAH      N/A     69  63  81 NE2         N/A
MERIDIANVILLE  CLEAR     64  61  88 CALM      30.12S
REDSTONE ARSN  CLEAR     66  65  94 CALM      30.10S
VINEMONT AP    FAIR      63  62  96 CALM      30.14R
$$

ALZ008>010-290700-
NORTHEAST ALABAMA

CITY           SKY/WX    TMP DP  RH WIND       PRES   REMARKS
FORT PAYNE     FOG       61  59  94 CALM      30.12F VSB<1/4
SCOTTSBORO AP  CLEAR     64  64 100 CALM      30.12F
SCOTTSBORO HCN   N/A     63 N/A N/A MISG        N/A
VALLEY HEAD      N/A     61 N/A N/A MISG        N/A
$$

TNZ076-096-097-290700-
SOUTHEASTERN MIDDLE TENNESSEE

CITY           SKY/WX    TMP DP  RH WIND       PRES   REMARKS
TULLAHOMA        N/A     63  63 100 CALM      30.14S VSB 1
WINCHESTER     CLEAR     64  61  88 SE3       30.13F
$$

...SURROUNDING SITES...

CITY           SKY/WX    TMP DP  RH WIND       PRES   REMARKS
ATLANTA        MOCLDY    72  58  61 SE3       30.11F
ANNISTON       PTCLDY    68  65  90 E3        30.11S
BIRMINGHAM     PTCLDY    70  65  84 CALM      30.12S
CHATTANOOGA    CLOUDY    71  64  78 CALM      30.12S
DALTON         CLEAR     64  61  88 CALM      30.12S
GADSDEN        PTCLDY    64  63  96 CALM      30.10F FOG
GOLDEN TRNGL   CLEAR     70  64  83 CALM      30.07S
HALEYVILLE     FAIR      65  63  93 CALM      30.13S
JACKSON TN     CLEAR     70  65  84 S6        30.06F
MEMPHIS        CLEAR     72  68  87 S7        30.05S
NASHVILLE      CLOUDY    68  62  81 S3        30.11R
OXFORD MS      FAIR      66  64  94 CALM      30.09S
ROME           CLEAR     64  58  80 NE5       30.10F
SAVANNAH       PTCLDY    68  64  88 CALM      30.07F
TUPELO         CLEAR     70  67  90 CALM      30.07S
TUSCALOOSA     CLEAR     69  66  90 CALM      30.08S
$$

...GULF COAST WEATHER...

CITY           SKY/WX    TMP DP  RH WIND       PRES   REMARKS
GULFPORT       CLEAR     69  67  93 CALM      30.06S FOG
PASCAGOULA     CLEAR     66  65  96 CALM      30.07S
MOBILE         CLEAR     67  67 100 CALM      30.08S
GULF SHORES    CLEAR     67  67 100 W8        30.07S
DESTIN         CLOUDY    74  69  85 CALM      30.06S
PANAMA CITY    CLEAR     73  71  96 NW6       30.05F
APPALACHICOLA  CLEAR     73  73 100 N5        30.04F
$$





USA.gov is the U.S. government's official web portal to all federal, state and local government web resources and services.